| time (UTC) | temp F | wind direction | speed MPH | gust MPH | rain 1hr in | rain 24hr in | rain mn in | humidity % | barometer mb |
| 20260905230014 | 63 | 95 | 0.0 | 0.0 | 0.00 | 0.04 | 0.04 | 90 | 1016.2 |
| 20260905224520 | 64 | 95 | 0.0 | 0.0 | 0.00 | 0.04 | 0.04 | 90 | 1016.2 |
| 20260905223008 | 64 | 95 | 0.0 | 0.0 | 0.00 | 0.04 | 0.04 | 90 | 1016.0 |
| 20260905221506 | 64 | 95 | 0.0 | 0.0 | 0.00 | 0.04 | 0.04 | 89 | 1015.9 |
| 20260905220005 | 65 | 95 | 0.0 | 0.0 | 0.00 | 0.04 | 0.04 | 88 | 1015.6 |
| 20260905214502 | 65 | 95 | 0.0 | 0.0 | 0.00 | 0.04 | 0.04 | 87 | 1015.3 |
| 20260905213001 | 65 | 95 | 0.0 | 0.0 | 0.00 | 0.04 | 0.04 | 87 | 1015.4 |
| 20260905211501 | 65 | 102 | 0.0 | 0.0 | 0.00 | 0.04 | 0.04 | 88 | 1015.4 |
| 20260905210100 | 65 | 91 | 0.0 | 0.0 | 0.00 | 0.04 | 0.04 | 89 | 1015.2 |
| 20260905204603 | 65 | 94 | 0.0 | 0.0 | 0.00 | 0.04 | 0.04 | 88 | 1015.0 |
| 20260905203101 | 65 | 93 | 0.0 | 0.0 | 0.00 | 0.04 | 0.04 | 89 | 1015.1 |
| 20260905201558 | 65 | 89 | 0.0 | 0.0 | 0.00 | 0.04 | 0.04 | 88 | 1015.0 |
| 20260905200105 | 65 | 86 | 0.0 | 0.0 | 0.01 | 0.04 | 0.04 | 90 | 1014.9 |
| 20260905194556 | 65 | 96 | 0.0 | 0.0 | 0.04 | 0.04 | 0.04 | 91 | 1014.9 |
| 20260905193107 | 64 | 58 | 0.0 | 0.0 | 0.04 | 0.04 | 0.04 | 90 | 1014.8 |
| 20260905191559 | 64 | 85 | 0.0 | 0.0 | 0.04 | 0.04 | 0.04 | 89 | 1014.9 |
| 20260905190059 | 65 | 75 | 0.0 | 0.0 | 0.03 | 0.03 | 0.03 | 87 | 1014.9 |
| 20260905184552 | 68 | 304 | 0.0 | 0.0 | 0.00 | 0.00 | 0.00 | 79 | 1014.9 |
| 20260905183056 | 71 | 338 | 0.0 | 0.0 | 0.00 | 0.00 | 0.00 | 74 | 1014.4 |
| 20260905181550 | 70 | 325 | 0.0 | 0.0 | 0.00 | 0.00 | 0.00 | 76 | 1014.2 |
| 20260905180053 | 70 | 61 | 0.0 | 0.0 | 0.00 | 0.00 | 0.00 | 74 | 1014.3 |
| 20260905174548 | 71 | 106 | 0.0 | 0.0 | 0.00 | 0.00 | 0.00 | 73 | 1014.3 |
| 20260905173050 | 70 | 83 | 0.0 | 0.0 | 0.00 | 0.00 | 0.00 | 76 | 1014.4 |
| 20260905171546 | 69 | 330 | 0.0 | 0.0 | 0.00 | 0.00 | 0.00 | 80 | 1014.3 |
| 20260905170052 | 68 | 241 | 0.0 | 0.0 | 0.00 | 0.00 | 0.00 | 84 | 1014.5 |
| 20260905164545 | 68 | 336 | 0.0 | 0.0 | 0.00 | 0.00 | 0.00 | 83 | 1014.6 |
| 20260905163043 | 70 | 69 | 0.0 | 0.0 | 0.00 | 0.00 | 0.00 | 75 | 1014.4 |
| 20260905161542 | 69 | 25 | 0.0 | 0.0 | 0.00 | 0.00 | 0.00 | 74 | 1014.4 |
| 20260905160047 | 69 | 245 | 0.0 | 0.0 | 0.00 | 0.00 | 0.00 | 74 | 1014.5 |
| 20260905154542 | 69 | 94 | 0.0 | 0.0 | 0.00 | 0.00 | 0.00 | 75 | 1014.2 |
| 20260905153040 | 70 | 39 | 0.0 | 0.0 | 0.00 | 0.00 | 0.00 | 75 | 1014.3 |
| 20260905151542 | 69 | 66 | 0.0 | 0.0 | 0.00 | 0.00 | 0.00 | 77 | 1014.4 |
| 20260905150039 | 68 | 80 | 0.0 | 0.0 | 0.00 | 0.00 | 0.00 | 76 | 1014.4 |
| 20260905144545 | 69 | 343 | 0.0 | 0.0 | 0.00 | 0.00 | 0.00 | 75 | 1014.3 |
| 20260905143048 | 68 | 77 | 0.0 | 0.0 | 0.00 | 0.00 | 0.00 | 79 | 1014.3 |
| 20260905141534 | 68 | 334 | 0.0 | 0.0 | 0.00 | 0.00 | 0.00 | 79 | 1014.3 |
| 20260905140032 | 68 | 98 | 0.0 | 0.0 | 0.00 | 0.00 | 0.00 | 78 | 1014.2 |
| 20260905134531 | 68 | 335 | 0.0 | 0.0 | 0.00 | 0.00 | 0.00 | 79 | 1013.9 |
| 20260905133029 | 68 | 134 | 0.0 | 0.0 | 0.00 | 0.00 | 0.00 | 78 | 1013.8 |
| 20260905131541 | 69 | 71 | 0.0 | 0.0 | 0.00 | 0.00 | 0.00 | 81 | 1013.6 |
| 20260905130025 | 67 | 224 | 0.0 | 0.0 | 0.00 | 0.00 | 0.00 | 83 | 1013.6 |
| 20260905124519 | 65 | 98 | 0.0 | 0.0 | 0.00 | 0.00 | 0.00 | 88 | 1013.5 |
| 20260905123017 | 64 | 98 | 0.0 | 0.0 | 0.00 | 0.00 | 0.00 | 92 | 1013.4 |
| 20260905121514 | 63 | 154 | 0.0 | 0.0 | 0.00 | 0.00 | 0.00 | 94 | 1013.4 |
| 20260905120011 | 62 | 154 | 0.0 | 0.0 | 0.00 | 0.00 | 0.00 | 94 | 1013.3 |
| 20260905114510 | 61 | 154 | 0.0 | 0.0 | 0.00 | 0.00 | 0.00 | 94 | 1013.4 |
| 20260905113008 | 60 | 154 | 0.0 | 0.0 | 0.00 | 0.00 | 0.00 | 95 | 1013.1 |
| 20260905111507 | 59 | 154 | 0.0 | 0.0 | 0.00 | 0.00 | 0.00 | 95 | 1012.9 |
| 20260905110005 | 59 | 154 | 0.0 | 0.0 | 0.00 | 0.00 | 0.00 | 95 | 1012.7 |
| 20260905104503 | 58 | 154 | 0.0 | 0.0 | 0.00 | 0.00 | 0.00 | 94 | 1012.6 |
| 20260905103008 | 58 | 154 | 0.0 | 0.0 | 0.00 | 0.00 | 0.00 | 94 | 1012.5 |
| 20260905101504 | 57 | 154 | 0.0 | 0.0 | 0.00 | 0.00 | 0.00 | 94 | 1012.2 |
| 20260905100002 | 57 | 154 | 0.0 | 0.0 | 0.00 | 0.01 | 0.00 | 94 | 1012.2 |
| 20260905094503 | 57 | 154 | 0.0 | 0.0 | 0.00 | 0.01 | 0.00 | 94 | 1012.1 |
| 20260905093103 | 58 | 154 | 0.0 | 0.0 | 0.00 | 0.01 | 0.00 | 94 | 1012.2 |
| 20260905091605 | 58 | 154 | 0.0 | 0.0 | 0.00 | 0.01 | 0.00 | 94 | 1011.9 |
| 20260905090100 | 58 | 154 | 0.0 | 0.0 | 0.00 | 0.01 | 0.00 | 94 | 1011.9 |
| 20260905084558 | 58 | 154 | 0.0 | 0.0 | 0.00 | 0.01 | 0.00 | 94 | 1011.9 |
| 20260905083058 | 58 | 154 | 0.0 | 0.0 | 0.00 | 0.01 | 0.00 | 94 | 1011.9 |
| 20260905081604 | 58 | 154 | 0.0 | 0.0 | 0.00 | 0.01 | 0.00 | 94 | 1011.9 |
| 20260905074555 | 58 | 154 | 0.0 | 0.0 | 0.00 | 0.01 | 0.00 | 94 | 1011.9 |
| 20260905073055 | 58 | 154 | 0.0 | 0.0 | 0.00 | 0.01 | 0.00 | 93 | 1011.9 |
| 20260905071556 | 58 | 154 | 0.0 | 0.0 | 0.00 | 0.01 | 0.00 | 93 | 1012.0 |
| 20260905070053 | 58 | 154 | 0.0 | 0.0 | 0.00 | 0.01 | 0.00 | 93 | 1011.9 |
| 20260905064551 | 59 | 154 | 0.0 | 0.0 | 0.00 | 0.01 | 0.00 | 93 | 1012.1 |
| 20260905063100 | 59 | 154 | 0.0 | 0.0 | 0.00 | 0.01 | 0.00 | 93 | 1012.0 |
| 20260905061607 | 59 | 154 | 0.0 | 0.0 | 0.00 | 0.01 | 0.00 | 93 | 1012.2 |
| 20260905060047 | 60 | 154 | 0.0 | 0.0 | 0.00 | 0.01 | 0.00 | 93 | 1012.3 |
| 20260905054547 | 59 | 154 | 0.0 | 0.0 | 0.00 | 0.01 | 0.00 | 92 | 1012.3 |
| 20260905053053 | 60 | 154 | 0.0 | 0.0 | 0.00 | 0.01 | 0.00 | 92 | 1012.2 |
| 20260905051546 | 60 | 154 | 0.0 | 0.0 | 0.00 | 0.01 | 0.00 | 92 | 1012.3 |
| 20260905050044 | 60 | 154 | 0.0 | 0.0 | 0.00 | 0.01 | 0.00 | 92 | 1012.2 |
| 20260905044542 | 60 | 154 | 0.0 | 0.0 | 0.00 | 0.01 | 0.00 | 91 | 1012.3 |
| 20260905043041 | 61 | 154 | 0.0 | 0.0 | 0.00 | 0.01 | 0.00 | 91 | 1012.4 |
| 20260905041538 | 61 | 154 | 0.0 | 0.0 | 0.00 | 0.01 | 0.00 | 91 | 1012.3 |
| 20260905040036 | 62 | 154 | 0.0 | 0.0 | 0.00 | 0.01 | 0.01 | 91 | 1012.3 |
| 20260905034534 | 62 | 154 | 0.0 | 0.0 | 0.00 | 0.01 | 0.01 | 91 | 1012.4 |
| 20260905033035 | 62 | 154 | 0.0 | 0.0 | 0.00 | 0.01 | 0.01 | 90 | 1012.4 |
| 20260905031532 | 63 | 154 | 0.0 | 0.0 | 0.00 | 0.01 | 0.01 | 89 | 1012.4 |
| 20260905030036 | 63 | 154 | 0.0 | 0.0 | 0.00 | 0.25 | 0.01 | 89 | 1012.5 |
| 20260905024533 | 64 | 154 | 0.0 | 0.0 | 0.00 | 0.25 | 0.01 | 88 | 1012.5 |
| 20260905023029 | 64 | 154 | 0.0 | 0.0 | 0.00 | 0.25 | 0.01 | 88 | 1012.6 |
| 20260905021529 | 64 | 154 | 0.0 | 0.0 | 0.00 | 0.25 | 0.01 | 88 | 1012.7 |
| 20260905020049 | 64 | 154 | 0.0 | 0.0 | 0.00 | 0.25 | 0.01 | 87 | 1012.6 |
| 20260905014526 | 64 | 154 | 0.0 | 0.0 | 0.00 | 0.25 | 0.01 | 90 | 1012.8 |
| 20260905013035 | 64 | 154 | 0.0 | 0.0 | 0.00 | 0.25 | 0.01 | 90 | 1013.0 |
| 20260905011525 | 64 | 154 | 0.0 | 0.0 | 0.00 | 0.25 | 0.01 | 89 | 1012.9 |
| 20260905010024 | 64 | 154 | 0.0 | 0.0 | 0.00 | 0.25 | 0.01 | 89 | 1012.9 |
| 20260905004524 | 64 | 154 | 0.0 | 0.0 | 0.00 | 0.25 | 0.01 | 88 | 1012.8 |
| 20260905003023 | 65 | 154 | 0.0 | 0.0 | 0.00 | 0.25 | 0.01 | 88 | 1012.9 |
| 20260905001523 | 65 | 154 | 0.0 | 0.0 | 0.00 | 0.25 | 0.01 | 87 | 1012.8 |
| 20260905000023 | 65 | 154 | 0.0 | 0.0 | 0.00 | 0.25 | 0.01 | 86 | 1012.7 |
| 20260904234522 | 66 | 154 | 0.0 | 0.0 | 0.00 | 0.25 | 0.01 | 84 | 1012.5 |
| 20260904233022 | 67 | 154 | 0.0 | 0.0 | 0.00 | 0.25 | 0.01 | 83 | 1012.4 |
| 20260904231526 | 68 | 154 | 0.0 | 0.0 | 0.00 | 0.25 | 0.01 | 83 | 1012.3 |